This demonstration page uses our WeatherBlox Daily Observations layout. Learn more.

Left ArrowRight Arrow

39.08367, -84.50855

Hourly Observations for June 2, 2015

Temp ( °F °C ) Dew Point ( °F °C ) Humidity (%) Winds ( mph kmh ) Pressure ( in mb ) Visibility ( mi km ) Precip ( " mm )
12:53 am 00:53 Cloudy 55 12.8 49 9.4 80 80 NNE 9 15 30.16 1021 10 16 N/A
1:53 am 01:53 Cloudy 55 12.8 50 10 83 83 NNE 5 7 30.14 1021 10 16 N/A
2:53 am 02:53 Cloudy 54 12.2 49 9.4 83 83 N 7 11 30.13 1020 10 16 N/A
3:53 am 03:53 Cloudy 54 12.2 49 9.4 83 83 NNE 8 13 30.12 1020 10 16 N/A
4:53 am 04:53 Cloudy 54 12.2 49 9.4 83 83 NE 7 11 30.12 1020 10 16 N/A
5:53 am 05:53 Cloudy 53 11.7 49 9.4 86 86 NNE 9 15 30.12 1020 10 16 N/A
6:09 am 06:09 Cloudy 53 11.7 49 9.4 86 86 NNE 7 11 30.12 1020 10 16 N/A
6:53 am 06:53 Cloudy 53 11.7 49 9.4 86 86 NNE 6 9 30.14 1021 10 16 N/A
7:53 am 07:53 Cloudy 54 12.2 49 9.4 83 83 NNE 6 9 30.15 1021 9 14 N/A
8:53 am 08:53 Cloudy 54 12.2 49 9.4 83 83 NE 5 7 30.16 1021 9 14 N/A
9:53 am 09:53 Cloudy 55 12.8 50 10 83 83 N 7 11 30.17 1022 8 13 N/A
10:53 am 10:53 Cloudy 55 12.8 50 10 83 83 NE 6 9 30.17 1022 8 13 N/A
11:43 am 11:43 Cloudy 56 13.3 50 10 81 81 NE 3 6 30.18 1022 9 14 N/A
11:53 am 11:53 Cloudy 56 13.3 50 10 81 81 NE 7 11 30.17 1022 9 14 N/A
12:53 pm 12:53 Cloudy 57 13.9 50 10 78 78 NE 6 9 30.17 1022 10 16 N/A
1:53 pm 13:53 Cloudy 58 14.4 51 10.6 78 78 NE 7 11 30.16 1021 10 16 N/A
2:53 pm 14:53 Cloudy 59 15 52 11.1 78 78 NE 7 11 30.14 1021 10 16 N/A
3:53 pm 15:53 Cloudy 60 15.6 52 11.1 75 75 ENE 7 11 30.11 1020 10 16 N/A
4:53 pm 16:53 Cloudy 62 16.7 53 11.7 73 73 NE 7 11 30.09 1019 10 16 N/A
5:53 pm 17:53 Cloudy 62 16.7 53 11.7 73 73 ENE 7 11 30.09 1019 10 16 N/A
6:53 pm 18:53 Cloudy 62 16.7 53 11.7 73 73 NE 8 13 30.08 1019 10 16 N/A
7:53 pm 19:53 Cloudy 62 16.7 53 11.7 73 73 NNE 5 7 30.09 1019 10 16 N/A
8:53 pm 20:53 Cloudy 61 16.1 53 11.7 75 75 N N/A 30.10 1019 10 16 N/A
9:46 pm 21:46 Cloudy 59 15 56 13.3 90 90 N N/A 30.09 1019 10 16 N/A
9:53 pm 21:53 Cloudy 59 15 56 13.3 90 90 N N/A 30.10 1019 10 16 N/A
10:53 pm 22:53 Cloudy 59 15 55 12.8 87 87 E 3 6 30.11 1020 10 16 N/A
11:53 pm 23:53 Cloudy 58 14.4 55 12.8 90 90 E 3 6 30.11 1020 10 16 N/A

Powered by AerisWeather